This demonstration page uses our WeatherBlox Daily Observations layout. Learn more.

Left ArrowRight Arrow

41.12389, -100.76542

Hourly Observations for March 19, 2019

Temp ( °F °C ) Dew Point ( °F °C ) Humidity (%) Winds ( mph kmh ) Pressure ( in mb ) Visibility ( mi km ) Precip ( " mm )
12:53 am 00:53 Cloudy with Light Rain 36 2.2 30 -1.1 79 79 E 3 6 30.23 1024 10 16 0.00 0.03
1:53 am 01:53 Cloudy 36 2.2 31 -0.6 82 82 ENE 6 9 30.23 1024 10 16 0.00 0.03
2:40 am 02:40 Cloudy with Light Rain 37 2.8 31 -0.6 79 79 ESE 9 15 30.27 1025 10 16 0.00 0.03
2:53 am 02:53 Cloudy with Light Rain 36 2.2 32 0 86 86 E 8 13 30.22 1024 10 16 0.00 0.03
3:06 am 03:06 Cloudy with Light Rain 36 2.2 32 0 86 86 ESE 8 13 30.27 1025 10 16 0.00 0.03
3:53 am 03:53 Cloudy with Light Rain 35 1.7 32 0 89 89 SE 5 7 30.20 1023 9 14 0.02 0.51
4:44 am 04:44 Cloudy with Light Snow 34 1.1 32 0 92 92 Calm 30.25 1024 3 5 0.02 0.51
4:51 am 04:51 Cloudy with Light Snow 34 1 32 0 93 93 NE 3 6 30.25 1024 2 2 0.03 0.76
4:53 am 04:53 Cloudy with Light Snow 34 1.1 32 0 92 92 NE 3 6 30.19 1022 2 2 0.03 0.76
5:02 am 05:02 Cloudy with Light Snow 34 1.1 32 0 92 92 Calm 30.24 1024 3 5 0.01 0.25
5:28 am 05:28 Cloudy 34 1.1 32 0 92 92 E 6 9 30.23 1024 9 14 0.01 0.25
5:53 am 05:53 Cloudy 34 1.1 32 0 92 92 ENE 6 9 30.19 1022 10 16 0.01 0.25
6:53 am 06:53 Cloudy 33 0.6 31 -0.6 92 92 ENE 3 6 30.20 1023 9 14 0.00 0.00
7:30 am 07:30 Cloudy 33 0.6 31 -0.6 92 92 NE 5 7 30.27 1025 9 14 0.00 0.00
7:51 am 07:51 Partly Cloudy 32 0 30 -1 93 93 NE 3 6 30.27 1025 9 14 0.00 0.00
7:53 am 07:53 Mostly Sunny 31 -0.6 29 -1.7 92 92 NE 5 7 30.22 1023 9 14 0.00 0.00
8:53 am 08:53 Sunny with Mist and Fog 30 -1.1 28 -2.2 92 92 Calm 30.23 1024 3 4 0.00 0.00
9:04 am 09:04 Sunny with Mist and Fog 32 0 30 -1.1 92 92 Calm 30.28 1026 3 5 0.00 0.00
9:53 am 09:53 Sunny 37 2.8 33 0.6 86 86 Calm 30.24 1024 9 14 0.00 0.00
10:12 am 10:12 Partly Cloudy 38 3.3 33 0.6 83 83 Calm 30.26 1025 10 16 0.00 0.00
10:53 am 10:53 Mostly Sunny 41 5 35 1.7 79 79 N 6 9 30.23 1024 10 16 0.00 0.00
11:17 am 11:17 Mostly Cloudy 42 5.6 36 2.2 79 79 NW 8 13 30.24 1024 10 16 0.00 0.00
11:28 am 11:28 Mostly Cloudy 42 5.6 36 2.2 79 79 NW 7 11 30.24 1024 10 16 0.00 0.00
11:46 am 11:46 Partly Cloudy 44 6.7 35 1.7 71 71 N 9 15 30.22 1023 10 16 0.00 0.00
11:53 am 11:53 Mostly Sunny 44 6.7 34 1.1 68 68 N 8 13 30.23 1024 10 16 0.00 0.00
12:53 pm 12:53 Cloudy 45 7.2 34 1.1 66 66 NNE 7 11 30.24 1024 10 16 0.00 0.00
1:08 pm 13:08 Cloudy 46 7.8 34 1.1 63 63 ENE 8 13 30.22 1023 10 16 0.00 0.00
1:19 pm 13:19 Cloudy 47 8.3 34 1.1 61 61 NNE 9 15 30.22 1023 10 16 0.00 0.00
1:53 pm 13:53 Cloudy with Light Rain 44 6.7 35 1.7 71 71 NE 12 19 30.25 1024 7 11 0.00 0.03
2:53 pm 14:53 Mostly Cloudy 46 7.8 36 2.2 68 68 ENE 18 30 30.23 1024 10 16 0.00 0.03
3:53 pm 15:53 Mostly Cloudy 45 7.2 33 0.6 63 63 ENE 16 26 30.23 1024 10 16 0.00 0.00
4:39 pm 16:39 Cloudy with Light Rain 42 5.6 36 2.2 79 79 NNE 13 20 30.25 1024 6 10 0.00 0.03
4:53 pm 16:53 Cloudy 43 6.1 36 2.2 76 76 NE 13 20 30.24 1024 10 16 0.01 0.25
5:53 pm 17:53 Cloudy 45 7.2 32 0 61 61 NNE 12 19 30.24 1024 10 16 0.00 0.00
6:53 pm 18:53 Cloudy 44 6.7 31 -0.6 60 60 NE 7 11 30.25 1024 10 16 0.00 0.00
7:53 pm 19:53 Sunny 38 3.3 29 -1.7 70 70 NNE 8 13 30.28 1025 10 16 0.00 0.00
8:53 pm 20:53 Clear 33 0.6 27 -2.8 78 78 NNE 8 13 30.30 1026 10 16 0.00 0.00
9:53 pm 21:53 Clear 31 -0.6 27 -2.8 85 85 N 8 13 30.31 1027 10 16 0.00 0.00
10:53 pm 22:53 Clear 27 -2.8 24 -4.4 89 89 W 3 6 30.32 1027 9 14 0.00 0.00
11:53 pm 23:53 Clear 26 -3.3 23 -5 88 88 Calm 30.33 1027 7 11 0.00 0.00

Powered by AerisWeather